| time (UTC) | temp C | wind direction | speed KPH | gust KPH | rain 1hr cm | rain 24hr cm | rain mn cm | humidity % | barometer mb |
| 20260505165205 | 7 | 267 | 4.8 | 8.0 | 0.00 | 0.05 | 0.05 | 48 | 1004.2 |
| 20260505164503 | 7 | 248 | 3.2 | 4.8 | 0.00 | 0.05 | 0.05 | 48 | 1004.1 |
| 20260505163813 | 8 | 266 | 3.2 | 4.8 | 0.00 | 0.05 | 0.05 | 48 | 1004.1 |
| 20260505163111 | 8 | 353 | 3.2 | 11.3 | 0.00 | 0.05 | 0.05 | 47 | 1004.2 |
| 20260505162409 | 8 | 254 | 9.7 | 12.9 | 0.00 | 0.05 | 0.05 | 47 | 1004.3 |
| 20260505161707 | 8 | 10 | 4.8 | 11.3 | 0.00 | 0.05 | 0.05 | 48 | 1004.3 |
| 20260505161006 | 8 | 248 | 3.2 | 4.8 | 0.00 | 0.05 | 0.05 | 50 | 1004.3 |
| 20260505160303 | 8 | 283 | 1.6 | 3.2 | 0.00 | 0.05 | 0.05 | 50 | 1004.2 |
| 20260505152804 | 8 | 248 | 1.6 | 4.8 | 0.00 | 0.05 | 0.05 | 49 | 1004.1 |
| 20260505152102 | 8 | 250 | 3.2 | 4.8 | 0.00 | 0.05 | 0.05 | 49 | 1004.1 |
| 20260505151413 | 9 | 17 | 4.8 | 19.3 | 0.00 | 0.05 | 0.05 | 49 | 1004.1 |
| 20260505150711 | 9 | 274 | 4.8 | 8.0 | 0.00 | 0.05 | 0.05 | 49 | 1003.9 |
| 20260505140402 | 16 | 248 | 8.0 | 4.8 | 0.00 | 0.05 | 0.05 | 38 | 1003.9 |
| 20260505130104 | 10 | 282 | 16.1 | 16.1 | 0.00 | 0.05 | 0.05 | 50 | 1003.4 |
| 20260505124711 | 11 | 273 | 9.7 | 19.3 | 0.00 | 0.05 | 0.05 | 48 | 1003.4 |
| 20260505124009 | 12 | 340 | 4.8 | 9.7 | 0.00 | 0.05 | 0.05 | 48 | 1003.3 |
| 20260505123308 | 13 | 342 | 4.8 | 11.3 | 0.00 | 0.05 | 0.05 | 50 | 1003.2 |
| 20260505122605 | 12 | 251 | 8.0 | 12.9 | 0.00 | 0.05 | 0.05 | 52 | 1003.2 |
| 20260505121903 | 11 | 345 | 4.8 | 9.7 | 0.00 | 0.05 | 0.05 | 56 | 1003.2 |
| 20260505121212 | 11 | 24 | 8.0 | 9.7 | 0.00 | 0.05 | 0.05 | 55 | 1003.1 |
| 20260505120509 | 12 | 354 | 4.8 | 8.0 | 0.00 | 0.05 | 0.05 | 52 | 1002.9 |
| 20260505115807 | 13 | 340 | 9.7 | 14.5 | 0.00 | 0.05 | 0.05 | 53 | 1002.8 |
| 20260505115103 | 12 | 207 | 9.7 | 16.1 | 0.00 | 0.05 | 0.05 | 54 | 1002.6 |
| 20260505114413 | 12 | 356 | 8.0 | 11.3 | 0.00 | 0.10 | 0.05 | 54 | 1002.5 |
| 20260505113710 | 13 | 286 | 8.0 | 8.0 | 0.00 | 0.10 | 0.05 | 53 | 1002.4 |
| 20260505113008 | 12 | 278 | 8.0 | 12.9 | 0.00 | 0.15 | 0.05 | 52 | 1002.3 |
| 20260505112307 | 12 | 0 | 4.8 | 14.5 | 0.00 | 0.15 | 0.05 | 55 | 1002.2 |
| 20260505111603 | 12 | 269 | 11.3 | 20.9 | 0.00 | 0.15 | 0.05 | 55 | 1002.2 |
| 20260505110901 | 10 | 281 | 8.0 | 16.1 | 0.00 | 0.15 | 0.05 | 59 | 1002.1 |
| 20260505110210 | 11 | 259 | 3.2 | 4.8 | 0.00 | 0.20 | 0.05 | 58 | 1001.9 |
| 20260505102008 | 11 | 347 | 9.7 | 19.3 | 0.00 | 0.25 | 0.05 | 57 | 1001.6 |
| 20260505101306 | 12 | 248 | 8.0 | 20.9 | 0.00 | 0.25 | 0.05 | 59 | 1001.4 |
| 20260505100603 | 11 | 305 | 3.2 | 8.0 | 0.00 | 0.25 | 0.05 | 64 | 1001.4 |
| 20260505095913 | 11 | 265 | 8.0 | 24.1 | 0.00 | 0.25 | 0.05 | 64 | 1001.3 |
| 20260505095211 | 10 | 19 | 8.0 | 11.3 | 0.00 | 0.25 | 0.05 | 68 | 1001.2 |
| 20260505094509 | 9 | 18 | 4.8 | 14.5 | 0.00 | 0.25 | 0.05 | 68 | 1001.0 |
| 20260505093807 | 9 | 329 | 14.5 | 19.3 | 0.00 | 0.25 | 0.05 | 67 | 1001.0 |
| 20260505093104 | 10 | 249 | 19.3 | 25.7 | 0.00 | 0.25 | 0.05 | 67 | 1000.8 |
| 20260505092401 | 10 | 234 | 9.7 | 16.1 | 0.00 | 0.25 | 0.05 | 64 | 1000.7 |
| 20260505091711 | 11 | 237 | 4.8 | 16.1 | 0.00 | 0.25 | 0.05 | 60 | 1000.2 |
| 20260505091008 | 12 | 345 | 12.9 | 19.3 | 0.00 | 0.25 | 0.05 | 58 | 1000.2 |
| 20260505090306 | 13 | 330 | 8.0 | 11.3 | 0.00 | 0.25 | 0.05 | 59 | 1000.2 |
| 20260505085603 | 13 | 22 | 4.8 | 3.2 | 0.00 | 0.25 | 0.05 | 64 | 1000.0 |
| 20260505084901 | 12 | 17 | 1.6 | 4.8 | 0.00 | 0.25 | 0.05 | 65 | 999.9 |
| 20260505084211 | 12 | 333 | 1.6 | 8.0 | 0.00 | 0.25 | 0.05 | 65 | 999.9 |
| 20260505083508 | 12 | 20 | 1.6 | 8.0 | 0.00 | 0.25 | 0.05 | 63 | 999.9 |
| 20260505082805 | 13 | 18 | 3.2 | 9.7 | 0.00 | 0.25 | 0.05 | 62 | 999.9 |
| 20260505082102 | 13 | 6 | 3.2 | 8.0 | 0.00 | 0.25 | 0.05 | 61 | 999.8 |
| 20260505081412 | 14 | 22 | 1.6 | 3.2 | 0.00 | 0.25 | 0.05 | 58 | 1000.0 |
| 20260505080710 | 16 | 4 | 1.6 | 11.3 | 0.00 | 0.25 | 0.05 | 57 | 999.9 |
| 20260505080007 | 17 | 5 | 3.2 | 9.7 | 0.00 | 0.25 | 0.05 | 57 | 999.9 |
| 20260505075305 | 17 | 14 | 3.2 | 11.3 | 0.00 | 0.25 | 0.05 | 61 | 999.8 |
| 20260505074604 | 15 | 18 | 3.2 | 8.0 | 0.00 | 0.25 | 0.05 | 64 | 999.7 |
| 20260505073913 | 14 | 5 | 1.6 | 9.7 | 0.00 | 0.25 | 0.05 | 65 | 999.8 |
| 20260505073210 | 13 | 344 | 3.2 | 4.8 | 0.00 | 0.25 | 0.05 | 63 | 999.7 |
| 20260505072507 | 15 | 264 | 3.2 | 8.0 | 0.00 | 0.25 | 0.05 | 62 | 999.8 |
| 20260505071805 | 15 | 347 | 4.8 | 8.0 | 0.00 | 0.25 | 0.05 | 61 | 999.8 |
| 20260505071103 | 15 | 0 | 3.2 | 9.7 | 0.00 | 0.25 | 0.05 | 64 | 999.7 |
| 20260505070411 | 13 | 350 | 4.8 | 8.0 | 0.00 | 0.25 | 0.05 | 68 | 999.6 |
| 20260505065709 | 12 | 13 | 4.8 | 8.0 | 0.00 | 0.25 | 0.05 | 69 | 999.5 |
| 20260505065006 | 12 | 354 | 4.8 | 8.0 | 0.00 | 0.25 | 0.05 | 73 | 999.3 |
| 20260505064305 | 11 | 343 | 4.8 | 9.7 | 0.00 | 0.25 | 0.05 | 75 | 999.3 |
| 20260505063603 | 10 | 0 | 4.8 | 8.0 | 0.00 | 0.25 | 0.05 | 77 | 999.3 |
| 20260505062911 | 10 | 353 | 4.8 | 9.7 | 0.00 | 0.25 | 0.05 | 79 | 999.5 |
| 20260505062209 | 10 | 9 | 3.2 | 8.0 | 0.00 | 0.25 | 0.05 | 79 | 999.6 |
| 20260505061507 | 9 | 341 | 4.8 | 8.0 | 0.00 | 0.25 | 0.05 | 80 | 999.7 |
| 20260505060805 | 9 | 358 | 4.8 | 8.0 | 0.00 | 0.25 | 0.05 | 79 | 999.9 |
| 20260505055411 | 8 | 325 | 9.7 | 14.5 | 0.00 | 0.25 | 0.05 | 84 | 999.6 |
| 20260505054709 | 7 | 4 | 8.0 | 11.3 | 0.00 | 0.25 | 0.05 | 86 | 999.7 |
| 20260505054006 | 7 | 332 | 4.8 | 9.7 | 0.00 | 0.25 | 0.05 | 86 | 999.5 |
| 20260505053303 | 7 | 11 | 9.7 | 20.9 | 0.00 | 0.25 | 0.05 | 87 | 999.6 |
| 20260505052601 | 7 | 344 | 4.8 | 19.3 | 0.00 | 0.25 | 0.05 | 88 | 999.8 |
| 20260505051910 | 7 | 9 | 3.2 | 8.0 | 0.00 | 0.25 | 0.05 | 87 | 999.7 |
| 20260505051208 | 7 | 9 | 4.8 | 11.3 | 0.00 | 0.25 | 0.05 | 87 | 999.7 |
| 20260505050506 | 7 | 336 | 3.2 | 4.8 | 0.00 | 0.25 | 0.05 | 86 | 999.7 |
| 20260505041611 | 6 | 13 | 3.2 | 4.8 | 0.00 | 0.25 | 0.05 | 89 | 1000.0 |
| 20260505040910 | 6 | 347 | 4.8 | 12.9 | 0.00 | 0.25 | 0.05 | 89 | 1000.1 |
| 20260505040209 | 6 | 331 | 3.2 | 4.8 | 0.00 | 0.25 | 0.05 | 89 | 1000.2 |
| 20260505035507 | 6 | 303 | 1.6 | 3.2 | 0.00 | 0.25 | 0.05 | 89 | 1000.5 |
| 20260505034804 | 6 | 355 | 3.2 | 9.7 | 0.00 | 0.25 | 0.05 | 88 | 1000.5 |
| 20260505034102 | 6 | 304 | 3.2 | 4.8 | 0.00 | 0.25 | 0.05 | 88 | 1000.5 |
| 20260505033411 | 6 | 330 | 1.6 | 1.6 | 0.00 | 0.25 | 0.05 | 88 | 1000.6 |
| 20260505032709 | 6 | 335 | 1.6 | 4.8 | 0.00 | 0.25 | 0.05 | 88 | 1000.7 |
| 20260505032007 | 6 | 52 | 0.0 | 0.0 | 0.00 | 0.25 | 0.05 | 88 | 1000.7 |
| 20260505031305 | 6 | 54 | 0.0 | 3.2 | 0.00 | 0.25 | 0.05 | 88 | 1000.6 |
| 20260505030604 | 5 | 0 | 1.6 | 3.2 | 0.00 | 0.25 | 0.05 | 88 | 1000.6 |
| 20260505025902 | 5 | 349 | 1.6 | 4.8 | 0.00 | 0.25 | 0.05 | 88 | 1000.6 |
| 20260505025212 | 5 | 333 | 1.6 | 3.2 | 0.00 | 0.25 | 0.05 | 88 | 1000.6 |
| 20260505024510 | 5 | 25 | 0.0 | 1.6 | 0.00 | 0.25 | 0.05 | 88 | 1000.5 |
| 20260505023808 | 5 | 340 | 1.6 | 1.6 | 0.00 | 0.25 | 0.05 | 88 | 1000.6 |
| 20260505023107 | 5 | 342 | 0.0 | 1.6 | 0.00 | 0.25 | 0.05 | 88 | 1000.6 |
| 20260505022406 | 5 | 332 | 1.6 | 1.6 | 0.00 | 0.25 | 0.05 | 88 | 1000.7 |
| 20260505021703 | 5 | 0 | 1.6 | 4.8 | 0.00 | 0.25 | 0.05 | 88 | 1000.6 |
| 20260505021013 | 5 | 357 | 1.6 | 1.6 | 0.00 | 0.25 | 0.05 | 88 | 1000.7 |
| 20260505020311 | 5 | 348 | 0.0 | 3.2 | 0.00 | 0.25 | 0.05 | 88 | 1000.7 |
| 20260505015610 | 5 | 0 | 1.6 | 3.2 | 0.00 | 0.25 | 0.05 | 88 | 1000.8 |
| 20260505014908 | 5 | 0 | 1.6 | 3.2 | 0.00 | 0.25 | 0.05 | 88 | 1000.8 |
| 20260505014204 | 5 | 1 | 0.0 | 1.6 | 0.00 | 0.25 | 0.05 | 88 | 1000.8 |
| 20260505013503 | 5 | 0 | 0.0 | 0.0 | 0.00 | 0.25 | 0.05 | 88 | 1000.8 |
| 20260505012801 | 5 | 359 | 1.6 | 3.2 | 0.00 | 0.25 | 0.05 | 88 | 1000.8 |
| 20260505012111 | 5 | 0 | 0.0 | 3.2 | 0.00 | 0.25 | 0.05 | 88 | 1000.8 |
| 20260505011409 | 5 | 7 | 0.0 | 0.0 | 0.05 | 0.25 | 0.05 | 88 | 1000.7 |
| 20260505010705 | 5 | 11 | 0.0 | 0.0 | 0.05 | 0.25 | 0.05 | 88 | 1000.7 |
| 20260505010005 | 5 | 8 | 0.0 | 1.6 | 0.05 | 0.25 | 0.05 | 88 | 1000.6 |
| 20260505005303 | 5 | 6 | 0.0 | 0.0 | 0.05 | 0.25 | 0.05 | 88 | 1000.7 |
| 20260505004612 | 5 | 1 | 0.0 | 1.6 | 0.05 | 0.25 | 0.05 | 88 | 1000.7 |
| 20260505003911 | 5 | 5 | 1.6 | 3.2 | 0.05 | 0.25 | 0.05 | 88 | 1000.7 |
| 20260505003208 | 5 | 13 | 0.0 | 0.0 | 0.05 | 0.25 | 0.05 | 88 | 1000.6 |
| 20260505002506 | 5 | 20 | 0.0 | 0.0 | 0.05 | 0.25 | 0.05 | 88 | 1000.6 |
| 20260505001804 | 6 | 15 | 0.0 | 0.0 | 0.05 | 0.25 | 0.05 | 88 | 1000.6 |
| 20260505001102 | 6 | 15 | 0.0 | 3.2 | 0.00 | 0.20 | 0.00 | 88 | 1000.6 |
| 20260505000413 | 6 | 15 | 0.0 | 1.6 | 0.00 | 0.20 | 0.00 | 88 | 1000.8 |
| 20260504235709 | 6 | 3 | 0.0 | 4.8 | 0.00 | 0.20 | 0.00 | 88 | 1000.8 |
| 20260504235006 | 6 | 3 | 0.0 | 3.2 | 0.00 | 0.20 | 0.00 | 88 | 1000.9 |
| 20260504234303 | 6 | 16 | 0.0 | 1.6 | 0.00 | 0.20 | 0.00 | 88 | 1001.2 |
| 20260504233612 | 6 | 9 | 1.6 | 3.2 | 0.00 | 0.20 | 0.00 | 88 | 1001.2 |
| 20260504232912 | 6 | 18 | 0.0 | 3.2 | 0.00 | 0.20 | 0.00 | 88 | 1001.3 |
| 20260504232209 | 6 | 11 | 0.0 | 0.0 | 0.00 | 0.20 | 0.00 | 88 | 1001.1 |
| 20260504231507 | 6 | 7 | 0.0 | 1.6 | 0.00 | 0.20 | 0.00 | 88 | 1001.1 |
| 20260504230806 | 6 | 14 | 0.0 | 0.0 | 0.00 | 0.20 | 0.00 | 88 | 1001.2 |
| 20260504230103 | 6 | 22 | 0.0 | 0.0 | 0.00 | 0.20 | 0.00 | 88 | 1001.0 |
| 20260504225413 | 6 | 11 | 1.6 | 4.8 | 0.00 | 0.20 | 0.00 | 88 | 1001.1 |
| 20260504224711 | 6 | 0 | 0.0 | 0.0 | 0.00 | 0.20 | 0.00 | 88 | 1001.0 |
| 20260504224009 | 6 | 10 | 1.6 | 3.2 | 0.00 | 0.20 | 0.00 | 88 | 1001.1 |
| 20260504223307 | 6 | 14 | 0.0 | 4.8 | 0.00 | 0.20 | 0.00 | 88 | 1001.1 |
| 20260504222606 | 6 | 22 | 0.0 | 3.2 | 0.00 | 0.20 | 0.00 | 88 | 1001.1 |
| 20260504221904 | 6 | 20 | 1.6 | 3.2 | 0.00 | 0.20 | 0.00 | 88 | 1001.1 |
| 20260504221202 | 5 | 2 | 1.6 | 1.6 | 0.00 | 0.20 | 0.00 | 88 | 1000.9 |
| 20260504220513 | 5 | 22 | 3.2 | 4.8 | 0.00 | 0.20 | 0.00 | 88 | 1000.8 |
| 20260504215811 | 5 | 22 | 0.0 | 0.0 | 0.00 | 0.20 | 0.20 | 88 | 1001.0 |
| 20260504215107 | 4 | 17 | 0.0 | 0.0 | 0.00 | 0.20 | 0.20 | 88 | 1001.0 |
| 20260504214405 | 4 | 12 | 1.6 | 3.2 | 0.00 | 0.20 | 0.20 | 88 | 1000.9 |
| 20260504213704 | 3 | 22 | 0.0 | 0.0 | 0.00 | 0.20 | 0.20 | 88 | 1000.9 |
| 20260504213004 | 4 | 22 | 0.0 | 0.0 | 0.00 | 0.20 | 0.20 | 88 | 1000.8 |
| 20260504212304 | 4 | 22 | 0.0 | 0.0 | 0.00 | 0.20 | 0.20 | 88 | 1000.9 |
| 20260504211612 | 4 | 22 | 0.0 | 1.6 | 0.00 | 0.20 | 0.20 | 88 | 1000.9 |
| 20260504210911 | 4 | 22 | 0.0 | 0.0 | 0.00 | 0.20 | 0.20 | 88 | 1000.9 |
| 20260504210209 | 4 | 22 | 0.0 | 0.0 | 0.00 | 0.20 | 0.20 | 88 | 1000.9 |
| 20260504205508 | 4 | 22 | 0.0 | 0.0 | 0.00 | 0.20 | 0.20 | 88 | 1000.9 |
| 20260504204806 | 4 | 22 | 0.0 | 0.0 | 0.00 | 0.20 | 0.20 | 88 | 1001.0 |
| 20260504204103 | 4 | 22 | 0.0 | 0.0 | 0.00 | 0.20 | 0.20 | 88 | 1001.1 |
| 20260504203402 | 4 | 22 | 0.0 | 0.0 | 0.00 | 0.20 | 0.20 | 88 | 1001.0 |
| 20260504202713 | 4 | 22 | 0.0 | 0.0 | 0.00 | 0.20 | 0.20 | 88 | 1000.9 |
| 20260504202011 | 4 | 22 | 0.0 | 1.6 | 0.00 | 0.20 | 0.20 | 88 | 1000.8 |
| 20260504201309 | 4 | 22 | 0.0 | 0.0 | 0.00 | 0.20 | 0.20 | 88 | 1000.8 |
| 20260504200606 | 5 | 22 | 0.0 | 0.0 | 0.00 | 0.20 | 0.20 | 88 | 1000.8 |
| 20260504195903 | 5 | 22 | 1.6 | 1.6 | 0.00 | 0.20 | 0.20 | 89 | 1000.7 |
| 20260504195202 | 5 | 22 | 0.0 | 1.6 | 0.00 | 0.20 | 0.20 | 89 | 1000.7 |
| 20260504194511 | 5 | 22 | 0.0 | 1.6 | 0.00 | 0.20 | 0.20 | 89 | 1000.7 |
| 20260504193809 | 5 | 18 | 0.0 | 0.0 | 0.00 | 0.20 | 0.20 | 89 | 1000.6 |
| 20260504193106 | 5 | 22 | 1.6 | 0.0 | 0.00 | 0.20 | 0.20 | 89 | 1000.7 |
| 20260504192404 | 5 | 22 | 0.0 | 1.6 | 0.00 | 0.20 | 0.20 | 88 | 1000.6 |
| 20260504191702 | 5 | 22 | 0.0 | 1.6 | 0.00 | 0.20 | 0.20 | 88 | 1000.8 |
| 20260504191001 | 5 | 22 | 0.0 | 0.0 | 0.00 | 0.20 | 0.20 | 88 | 1000.7 |
| 20260504190312 | 5 | 22 | 0.0 | 0.0 | 0.00 | 0.20 | 0.20 | 88 | 1000.7 |
| 20260504185611 | 6 | 22 | 0.0 | 3.2 | 0.00 | 0.20 | 0.20 | 88 | 1000.7 |
| 20260504184910 | 6 | 22 | 0.0 | 0.0 | 0.00 | 0.20 | 0.20 | 88 | 1000.7 |
| 20260504184208 | 6 | 22 | 0.0 | 1.6 | 0.00 | 0.20 | 0.20 | 87 | 1000.6 |
| 20260504183505 | 6 | 22 | 0.0 | 0.0 | 0.00 | 0.20 | 0.20 | 87 | 1000.6 |
| 20260504182803 | 7 | 22 | 0.0 | 0.0 | 0.00 | 0.20 | 0.20 | 86 | 1000.5 |
| 20260504182112 | 7 | 22 | 0.0 | 0.0 | 0.00 | 0.20 | 0.20 | 86 | 1000.4 |
| 20260504181410 | 8 | 22 | 0.0 | 0.0 | 0.00 | 0.20 | 0.20 | 86 | 1000.5 |
| 20260504180707 | 8 | 22 | 0.0 | 1.6 | 0.00 | 0.20 | 0.20 | 86 | 1000.5 |
| 20260504180005 | 8 | 22 | 0.0 | 0.0 | 0.00 | 0.20 | 0.20 | 86 | 1000.4 |
| 20260504175304 | 8 | 22 | 0.0 | 0.0 | 0.00 | 0.20 | 0.20 | 86 | 1000.2 |
| 20260504174614 | 8 | 22 | 0.0 | 0.0 | 0.00 | 0.20 | 0.20 | 86 | 1000.2 |
| 20260504173910 | 8 | 22 | 0.0 | 0.0 | 0.00 | 0.20 | 0.20 | 86 | 1000.1 |
| 20260504173208 | 7 | 22 | 0.0 | 0.0 | 0.00 | 0.20 | 0.20 | 86 | 1000.2 |
| 20260504172505 | 8 | 22 | 0.0 | 0.0 | 0.00 | 0.20 | 0.20 | 85 | 1000.1 |
| 20260504171803 | 8 | 22 | 0.0 | 0.0 | 0.00 | 0.20 | 0.20 | 85 | 1000.0 |
| 20260504171113 | 8 | 22 | 0.0 | 0.0 | 0.00 | 0.20 | 0.20 | 84 | 1000.0 |
| 20260504170410 | 9 | 22 | 0.0 | 0.0 | 0.00 | 0.20 | 0.20 | 83 | 1000.0 |